KB1WCR Weather Reports


time (UTC)temp
C
wind
direction
speed
KPH
gust
KPH
rain 1hr
cm
rain 24hr
cm
rain mn
cm
humidity
%
barometer
mb
20260509035853 4 284 0.0 0.0 0.00 0.00 0.00 83 1013.0
20260509035350 4 284 0.0 0.0 0.00 0.00 0.00 82 1012.9
20260509034846 4 286 0.0 0.0 0.00 0.00 0.00 83 1012.7
20260509034344 4 301 0.0 0.0 0.00 0.00 0.00 83 1012.8
20260509033841 4 306 0.0 0.0 0.00 0.00 0.00 82 1012.5
20260509033338 4 302 0.0 0.0 0.00 0.00 0.00 83 1012.6
20260509032835 3 290 0.0 0.0 0.00 0.00 0.00 84 1012.7
20260509032332 3 275 0.0 0.0 0.00 0.00 0.00 83 1012.5
20260509031830 3 290 0.0 0.0 0.00 0.00 0.00 83 1012.6
20260509031327 3 289 0.0 0.0 0.00 0.00 0.00 83 1012.4
20260509030825 3 275 0.0 0.0 0.00 0.00 0.00 82 1012.4
20260509030322 3 275 0.0 0.0 0.00 0.00 0.00 82 1012.4
20260509025819 3 275 0.0 0.0 0.00 0.00 0.00 81 1012.5
20260509025314 3 289 0.0 0.0 0.00 0.00 0.00 83 1012.4
20260509024810 3 290 0.0 0.0 0.00 0.00 0.00 82 1012.3
20260509024306 3 286 0.0 0.0 0.00 0.00 0.00 82 1012.2
20260509023803 3 287 0.0 0.0 0.00 0.00 0.00 82 1012.3
20260509023301 3 287 0.0 0.0 0.00 0.00 0.00 82 1012.4
20260509022757 3 299 0.0 0.0 0.00 0.00 0.00 82 1012.2
20260509022255 3 298 0.0 0.0 0.00 0.00 0.00 82 1012.1
20260509021751 2 282 0.0 0.0 0.00 0.00 0.00 83 1012.3
20260509021249 2 284 0.0 0.0 0.00 0.00 0.00 82 1012.2
20260509020746 2 287 0.0 0.0 0.00 0.00 0.00 82 1011.9
20260509020244 2 293 0.0 0.0 0.00 0.00 0.00 82 1012.0
20260509015741 3 287 0.0 0.0 0.00 0.00 0.00 82 1011.9
20260509015239 3 286 0.0 0.0 0.00 0.00 0.00 80 1011.5
20260509014735 3 298 0.0 0.0 0.00 0.00 0.00 80 1011.6
20260509014233 3 285 0.0 0.0 0.00 0.00 0.00 79 1011.7
20260509013729 3 275 0.0 0.0 0.00 0.00 0.00 79 1011.5
20260509013224 3 280 0.0 0.0 0.00 0.00 0.00 78 1011.4
20260509012722 4 287 0.0 0.0 0.00 0.00 0.00 76 1011.3
20260509012218 4 297 0.0 0.0 0.00 0.00 0.00 75 1011.1
20260509011716 4 284 0.0 0.0 0.00 0.00 0.00 75 1011.2
20260509011214 4 282 0.0 0.0 0.00 0.00 0.00 73 1011.1
20260509010711 5 285 0.0 0.0 0.00 0.00 0.00 73 1011.1
20260509010207 5 301 0.0 0.0 0.00 0.00 0.00 71 1011.0
20260509005705 5 299 0.0 0.0 0.00 0.00 0.00 72 1010.8
20260509005201 5 302 0.0 0.0 0.00 0.00 0.00 70 1010.8
20260509004656 6 282 0.0 0.0 0.00 0.00 0.00 68 1010.8
20260509004154 6 279 0.0 0.0 0.00 0.00 0.00 67 1010.4
20260509003653 7 274 0.0 0.0 0.00 0.00 0.00 66 1010.5
20260509003150 7 284 0.0 0.0 0.00 0.00 0.00 63 1010.4
20260509002647 7 279 0.0 0.0 0.00 0.00 0.00 61 1010.1
20260509002144 7 276 0.0 0.0 0.00 0.00 0.00 59 1010.1
20260509001642 8 287 0.0 0.0 0.00 0.00 0.00 57 1010.0
20260509001137 8 284 0.0 0.0 0.00 0.00 0.00 54 1010.1
20260509000636 9 279 0.0 0.0 0.00 0.00 0.00 51 1010.1
20260509000132 10 292 0.0 0.0 0.00 0.00 0.00 50 1010.0
20260508235629 10 254 0.0 1.6 0.00 0.00 0.00 48 1010.0
20260508235126 10 288 0.0 0.0 0.00 0.00 0.00 49 1009.8
20260508234623 10 324 0.0 0.0 0.00 0.00 0.00 48 1009.8
20260508234119 10 280 0.0 0.0 0.00 0.00 0.00 48 1009.5
20260508233619 10 275 0.0 0.0 0.00 0.00 0.00 48 1009.6
20260508233116 11 287 0.0 0.0 0.00 0.00 0.00 45 1009.5
20260508232613 11 287 1.6 3.2 0.00 0.00 0.00 44 1009.4
20260508232109 11 236 1.6 3.2 0.00 0.00 0.00 44 1009.4
20260508231607 12 315 0.0 1.6 0.00 0.00 0.00 43 1009.5
20260508231104 12 278 0.0 1.6 0.00 0.00 0.00 43 1009.4
20260508230601 12 357 1.6 1.6 0.00 0.00 0.00 43 1009.3
20260508230057 12 247 3.2 4.8 0.00 0.00 0.00 42 1009.3
20260508225555 11 276 0.0 0.0 0.00 0.00 0.00 44 1009.2
20260508225051 11 241 0.0 0.0 0.00 0.00 0.00 43 1009.3
20260508224550 11 307 3.2 4.8 0.00 0.00 0.00 44 1009.4
20260508224046 11 15 0.0 1.6 0.00 0.00 0.00 45 1009.0
20260508223544 11 344 1.6 1.6 0.00 0.00 0.00 44 1009.3
20260508223041 11 276 0.0 0.0 0.00 0.00 0.00 45 1009.2
20260508222539 12 227 4.8 4.8 0.00 0.00 0.00 44 1009.0
20260508222035 12 300 0.0 0.0 0.00 0.00 0.00 45 1009.0
20260508221532 13 357 6.4 9.7 0.00 0.00 0.00 42 1009.1
20260508221027 12 319 0.0 1.6 0.00 0.00 0.00 45 1009.0
20260508220524 12 266 3.2 3.2 0.00 0.00 0.00 44 1008.9
20260508220021 11 290 1.6 3.2 0.00 0.00 0.00 45 1008.8
20260508215518 12 249 0.0 1.6 0.00 0.00 0.00 44 1008.9
20260508215014 13 270 1.6 3.2 0.00 0.00 0.00 42 1008.8
20260508214512 13 239 6.4 6.4 0.00 0.00 0.00 43 1008.9
20260508214008 12 258 4.8 6.4 0.00 0.00 0.00 43 1008.8
20260508213506 12 33 3.2 4.8 0.00 0.00 0.00 43 1008.9
20260508213001 12 230 3.2 4.8 0.00 0.00 0.00 44 1008.9
20260508212458 13 5 4.8 6.4 0.00 0.00 0.00 43 1008.9
20260508211954 13 179 3.2 4.8 0.00 0.00 0.00 45 1008.6
20260508211449 12 276 4.8 9.7 0.00 0.00 0.00 45 1008.7
20260508210946 12 62 3.2 4.8 0.00 0.00 0.00 47 1008.7
20260508210443 12 213 4.8 6.4 0.00 0.00 0.00 46 1008.7
20260508205939 12 299 4.8 4.8 0.00 0.00 0.00 45 1008.7
20260508205437 12 14 4.8 16.1 0.00 0.00 0.00 46 1008.6
20260508204933 12 209 6.4 9.7 0.00 0.00 0.00 45 1008.5
20260508204430 12 27 1.6 1.6 0.00 0.00 0.00 47 1008.4
20260508203925 12 215 4.8 11.3 0.00 0.00 0.00 46 1008.6
20260508203422 12 245 6.4 6.4 0.00 0.00 0.00 47 1008.4
20260508202918 13 264 8.0 16.1 0.00 0.00 0.00 44 1008.4
20260508202415 13 222 4.8 4.8 0.00 0.00 0.00 45 1008.2
20260508201907 13 248 6.4 9.7 0.00 0.00 0.00 45 1008.3
20260508201403 12 241 3.2 4.8 0.00 0.00 0.00 47 1008.4
20260508200900 12 265 3.2 4.8 0.00 0.00 0.00 45 1008.1
20260508200357 12 184 1.6 1.6 0.00 0.00 0.00 47 1008.2
20260508195852 12 293 4.8 6.4 0.00 0.00 0.00 46 1008.1
20260508195349 12 274 4.8 4.8 0.00 0.00 0.00 44 1008.2
20260508194846 12 251 8.0 12.9 0.00 0.00 0.00 44 1007.9
20260508194343 12 247 9.7 17.7 0.00 0.00 0.00 43 1007.8
20260508193839 12 282 11.3 16.1 0.00 0.00 0.00 44 1007.9
20260508193336 12 263 4.8 6.4 0.00 0.00 0.00 45 1007.9
20260508192832 12 298 4.8 6.4 0.00 0.00 0.00 45 1007.9
20260508192330 12 290 6.4 11.3 0.00 0.00 0.00 45 1007.9
20260508191827 12 275 4.8 6.4 0.00 0.00 0.00 45 1007.7
20260508191324 12 280 17.7 24.1 0.00 0.00 0.00 43 1007.7
20260508190821 12 218 3.2 4.8 0.00 0.00 0.00 43 1007.8
20260508190318 13 290 6.4 6.4 0.00 0.00 0.00 43 1007.5
20260508185814 13 237 9.7 16.1 0.00 0.00 0.00 41 1007.4
20260508185312 13 86 3.2 4.8 0.00 0.00 0.00 42 1007.5
20260508184809 13 235 6.4 9.7 0.00 0.00 0.00 42 1007.2
20260508184305 13 289 8.0 12.9 0.00 0.00 0.00 43 1007.3
20260508183757 13 313 4.8 11.3 0.00 0.00 0.00 41 1007.4
20260508183253 13 85 3.2 4.8 0.00 0.00 0.00 43 1007.4
20260508182749 13 322 1.6 1.6 0.00 0.00 0.00 44 1007.4
20260508182246 13 325 1.6 3.2 0.00 0.00 0.00 43 1007.5
20260508181742 13 310 4.8 6.4 0.00 0.00 0.00 43 1007.3
20260508181239 13 292 6.4 9.7 0.00 0.00 0.00 42 1007.5
20260508180735 13 255 6.4 9.7 0.00 0.00 0.00 42 1007.4
20260508180232 12 288 1.6 3.2 0.00 0.00 0.00 46 1007.4
20260508175729 13 283 0.0 1.6 0.00 0.00 0.00 45 1007.2
20260508175226 12 234 8.0 9.7 0.00 0.00 0.00 45 1007.5
20260508174724 13 223 0.0 1.6 0.00 0.00 0.00 42 1007.4
20260508174221 13 300 1.6 1.6 0.00 0.00 0.00 45 1007.3
20260508173716 15 10 8.0 11.3 0.00 0.00 0.00 45 1007.2
20260508173213 13 220 6.4 6.4 0.00 0.00 0.00 45 1007.4
20260508172710 13 208 3.2 3.2 0.00 0.00 0.00 44 1007.4
20260508172207 12 250 1.6 1.6 0.00 0.00 0.00 53 1007.5
20260508171703 12 284 6.4 9.7 0.00 0.00 0.00 47 1007.5
20260508171159 12 332 3.2 3.2 0.00 0.00 0.00 48 1007.3
20260508170657 12 43 3.2 3.2 0.00 0.00 0.00 48 1007.5
20260508170155 12 52 4.8 6.4 0.00 0.00 0.00 46 1007.4
20260508165651 13 40 4.8 6.4 0.00 0.00 0.00 45 1007.3
20260508165148 13 318 3.2 4.8 0.00 0.00 0.00 47 1007.5
20260508164645 12 252 0.0 0.0 0.00 0.00 0.00 49 1007.5
20260508164141 12 288 0.0 1.6 0.00 0.00 0.00 46 1007.5
20260508163639 12 14 3.2 4.8 0.00 0.00 0.00 47 1007.7
20260508163136 12 304 4.8 6.4 0.00 0.00 0.00 44 1007.5
20260508162632 12 226 1.6 3.2 0.00 0.00 0.00 46 1007.6
20260508162130 12 228 0.0 1.6 0.00 0.00 0.00 46 1007.4
20260508161626 12 214 1.6 1.6 0.00 0.00 0.00 44 1007.4
20260508161123 12 339 1.6 3.2 0.00 0.00 0.00 45 1007.5
20260508160621 12 308 1.6 1.6 0.00 0.00 0.00 46 1007.5
20260508160119 12 252 4.8 4.8 0.00 0.00 0.00 44 1007.7
20260508155610 12 345 3.2 3.2 0.00 0.00 0.00 43 1007.5
20260508155107 12 266 1.6 3.2 0.00 0.00 0.00 45 1007.4
20260508154604 12 4 3.2 3.2 0.00 0.00 0.00 44 1007.7
20260508154101 12 331 3.2 4.8 0.00 0.00 0.00 43 1007.6
20260508153558 12 348 6.4 9.7 0.00 0.00 0.00 42 1007.6
20260508153054 13 294 1.6 1.6 0.00 0.00 0.00 42 1007.5
20260508152552 13 357 3.2 3.2 0.00 0.00 0.00 44 1007.8
20260508152046 13 258 1.6 3.2 0.00 0.00 0.00 44 1007.8
20260508151543 13 57 1.6 3.2 0.00 0.00 0.00 45 1007.7
20260508151040 13 256 1.6 1.6 0.00 0.00 0.00 44 1007.7
20260508150538 13 16 3.2 3.2 0.00 0.00 0.00 43 1007.7
20260508150033 13 273 0.0 1.6 0.00 0.00 0.00 41 1007.6
20260508145530 12 237 6.4 6.4 0.00 0.00 0.00 44 1007.8
20260508145026 12 311 6.4 6.4 0.00 0.00 0.00 43 1007.7
20260508144524 12 306 0.0 0.0 0.00 0.00 0.00 44 1008.0
20260508144021 12 306 4.8 9.7 0.00 0.00 0.00 48 1008.0
20260508143519 12 270 3.2 4.8 0.00 0.00 0.00 48 1007.8
20260508143015 13 16 6.4 11.3 0.00 0.00 0.00 45 1007.8
20260508142512 13 305 3.2 4.8 0.00 0.00 0.00 43 1007.8
20260508142009 12 229 1.6 1.6 0.00 0.00 0.00 51 1008.0
20260508141505 13 338 4.8 6.4 0.00 0.00 0.00 44 1008.1
20260508141003 13 228 6.4 6.4 0.00 0.00 0.00 46 1008.2
20260508140500 12 292 3.2 3.2 0.00 0.00 0.00 48 1008.0
20260508135955 13 29 3.2 3.2 0.00 0.00 0.00 46 1008.1
20260508135452 13 20 4.8 9.7 0.00 0.00 0.00 48 1008.2
20260508134949 12 357 1.6 3.2 0.00 0.00 0.00 50 1008.3
20260508134445 12 96 1.6 1.6 0.00 0.00 0.00 48 1008.3
20260508133942 12 217 1.6 3.2 0.00 0.00 0.00 49 1008.5
20260508133440 12 261 8.0 11.3 0.00 0.00 0.00 51 1008.5
20260508132936 12 258 6.4 9.7 0.00 0.00 0.00 50 1008.3
20260508132434 12 290 3.2 3.2 0.00 0.00 0.00 49 1008.6
20260508131931 12 197 3.2 3.2 0.00 0.00 0.00 49 1008.5
20260508131426 11 206 0.0 0.0 0.00 0.00 0.00 54 1008.4
20260508130923 12 217 1.6 3.2 0.00 0.00 0.00 52 1008.5
20260508130420 11 239 6.4 6.4 0.00 0.00 0.00 52 1008.4
20260508125916 11 225 4.8 6.4 0.00 0.00 0.00 53 1008.5
20260508125412 12 292 3.2 3.2 0.00 0.00 0.00 51 1008.4
20260508124910 12 235 0.0 1.6 0.00 0.00 0.00 52 1008.6
20260508124408 11 208 0.0 0.0 0.00 0.00 0.00 51 1008.6
20260508123905 11 266 3.2 3.2 0.00 0.00 0.00 53 1008.4
20260508123404 11 265 3.2 3.2 0.00 0.00 0.00 55 1008.5
20260508122859 11 222 4.8 6.4 0.00 0.00 0.00 54 1008.6
20260508122357 10 285 3.2 3.2 0.00 0.00 0.00 54 1008.5
20260508121854 10 312 1.6 3.2 0.00 0.00 0.00 54 1008.5
20260508121352 10 292 4.8 4.8 0.00 0.00 0.00 53 1008.4
20260508120849 10 283 1.6 3.2 0.00 0.00 0.00 58 1008.3
20260508120347 10 226 6.4 6.4 0.00 0.00 0.00 54 1008.3
20260508115844 9 225 3.2 3.2 0.00 0.00 0.00 58 1008.4
20260508115342 9 309 3.2 3.2 0.00 0.00 0.00 60 1008.6
20260508114838 9 219 4.8 4.8 0.00 0.00 0.00 59 1008.5
20260508114335 8 292 1.6 3.2 0.00 0.00 0.00 63 1008.5
20260508113832 8 232 1.6 1.6 0.00 0.00 0.00 62 1008.5
20260508113330 8 266 0.0 1.6 0.00 0.00 0.00 65 1008.4
20260508112826 8 285 1.6 1.6 0.00 0.00 0.00 64 1008.5
20260508112324 8 284 0.0 0.0 0.00 0.00 0.00 70 1008.5
20260508111820 8 204 1.6 1.6 0.00 0.00 0.00 67 1008.5
20260508111317 8 277 0.0 0.0 0.00 0.00 0.00 68 1008.4
20260508110815 8 284 0.0 0.0 0.00 0.00 0.00 68 1008.4
20260508110312 7 286 0.0 0.0 0.00 0.00 0.00 70 1008.4
20260508105811 6 287 0.0 0.0 0.00 0.00 0.00 78 1008.4
20260508105308 5 292 0.0 0.0 0.00 0.00 0.00 83 1008.5
20260508104805 4 292 0.0 0.0 0.00 0.00 0.00 82 1008.4
20260508104302 4 272 0.0 0.0 0.00 0.00 0.00 85 1008.4
20260508103800 3 277 0.0 0.0 0.00 0.00 0.00 88 1008.5
20260508103256 3 276 0.0 0.0 0.00 0.00 0.00 87 1008.4
20260508102754 2 304 0.0 0.0 0.00 0.00 0.00 90 1008.2
20260508102252 1 311 0.0 0.0 0.00 0.00 0.00 92 1008.2
20260508101749 1 327 0.0 0.0 0.00 0.00 0.00 94 1008.2
20260508101246 1 311 0.0 0.0 0.00 0.00 0.00 96 1008.0
20260508100744 0 319 0.0 0.0 0.00 0.00 0.00 96 1008.2
20260508100241 0 294 0.0 0.0 0.00 0.00 0.00 96 1008.0
20260508095737 0 87 0.0 0.0 0.00 0.00 0.00 96 1007.9
20260508095235 0 293 0.0 0.0 0.00 0.00 0.00 96 1007.9
20260508094732 0 298 0.0 0.0 0.00 0.00 0.00 96 1007.7
20260508094229 0 309 0.0 0.0 0.00 0.00 0.00 96 1007.7
20260508093726 0 291 0.0 0.0 0.00 0.00 0.00 96 1007.7
20260508093224 0 283 0.0 0.0 0.00 0.00 0.00 96 1007.7
20260508092720 0 281 0.0 0.0 0.00 0.00 0.00 96 1007.8
20260508092219 0 281 0.0 0.0 0.00 0.00 0.00 96 1007.5
20260508091716 0 283 0.0 0.0 0.00 0.00 0.00 95 1007.6
20260508091213 0 271 0.0 0.0 0.00 0.00 0.00 95 1007.2
20260508090711 0 288 0.0 0.0 0.00 0.00 0.00 94 1007.3
20260508090208 0 299 0.0 0.0 0.00 0.00 0.00 94 1007.2
20260508085704 0 300 0.0 0.0 0.00 0.00 0.00 94 1007.1
20260508085201 0 312 0.0 0.0 0.00 0.00 0.00 94 1007.2
20260508084657 0 311 0.0 0.0 0.00 0.00 0.00 94 1007.0
20260508084155 0 300 0.0 0.0 0.00 0.00 0.00 94 1007.0
20260508083652 0 286 0.0 0.0 0.00 0.00 0.00 94 1007.1
20260508083150 0 286 0.0 0.0 0.00 0.00 0.00 94 1007.0
20260508082644 0 286 0.0 0.0 0.00 0.00 0.00 93 1006.9
20260508082141 0 286 0.0 0.0 0.00 0.00 0.00 92 1007.0
20260508081634 1 286 0.0 0.0 0.00 0.00 0.00 92 1006.9
20260508081130 0 287 0.0 0.0 0.00 0.00 0.00 92 1007.0
20260508080627 0 278 0.0 0.0 0.00 0.00 0.00 92 1006.9
20260508080126 1 298 0.0 0.0 0.00 0.00 0.00 92 1006.9
20260508075621 1 318 0.0 0.0 0.00 0.00 0.00 92 1006.8
20260508075119 1 337 0.0 0.0 0.00 0.00 0.00 92 1006.6
20260508074616 1 331 0.0 0.0 0.00 0.00 0.00 90 1006.7
20260508074113 1 285 0.0 0.0 0.00 0.00 0.00 90 1006.4
20260508073611 1 330 0.0 0.0 0.00 0.00 0.00 90 1006.4
20260508073108 1 290 0.0 0.0 0.00 0.00 0.00 89 1006.4
20260508072603 2 281 0.0 0.0 0.00 0.00 0.00 88 1006.6
20260508072101 2 278 0.0 0.0 0.00 0.00 0.00 88 1006.5
20260508071559 2 278 0.0 0.0 0.00 0.00 0.00 87 1006.6
20260508071057 2 284 0.0 0.0 0.00 0.00 0.00 85 1006.6
20260508070554 2 290 0.0 0.0 0.00 0.00 0.00 85 1006.7
20260508070052 2 279 0.0 0.0 0.00 0.00 0.00 85 1006.8
20260508065549 2 277 0.0 0.0 0.00 0.00 0.00 84 1006.7
20260508065047 2 271 0.0 0.0 0.00 0.00 0.00 84 1006.7
20260508064544 2 273 0.0 0.0 0.00 0.00 0.00 85 1006.9
20260508064042 2 265 0.0 0.0 0.00 0.00 0.00 85 1006.6
20260508063538 2 272 0.0 0.0 0.00 0.00 0.00 84 1006.9
20260508063037 2 277 0.0 0.0 0.00 0.00 0.00 85 1007.0
20260508062529 3 274 0.0 0.0 0.00 0.00 0.00 85 1006.9
20260508062025 3 267 0.0 0.0 0.00 0.00 0.00 86 1007.2
20260508061523 3 279 0.0 0.0 0.00 0.00 0.00 83 1007.1
20260508061020 3 283 0.0 0.0 0.00 0.00 0.00 83 1007.3
20260508060516 3 290 0.0 0.0 0.00 0.00 0.00 82 1007.2
20260508060014 3 280 0.0 0.0 0.00 0.00 0.00 82 1007.2
20260508055509 3 284 0.0 0.0 0.00 0.00 0.00 80 1007.3
20260508055007 3 286 0.0 0.0 0.00 0.00 0.00 78 1007.3
20260508054503 3 301 0.0 0.0 0.00 0.00 0.00 78 1007.3
20260508054000 4 319 0.0 0.0 0.00 0.00 0.00 77 1007.4
20260508053457 4 294 0.0 0.0 0.00 0.00 0.00 76 1007.3
20260508052955 4 311 0.0 0.0 0.00 0.00 0.00 76 1007.3
20260508052452 4 285 0.0 0.0 0.00 0.00 0.00 76 1007.4
20260508051948 5 292 0.0 0.0 0.00 0.00 0.00 73 1007.5
20260508051444 4 280 0.0 0.0 0.00 0.00 0.00 72 1007.4
20260508050940 5 295 0.0 0.0 0.00 0.00 0.00 75 1007.5
20260508050436 5 344 0.0 0.0 0.00 0.00 0.00 72 1007.6
20260508045933 5 282 0.0 0.0 0.00 0.00 0.00 74 1007.6
20260508045425 5 281 0.0 0.0 0.00 0.00 0.00 74 1007.5
20260508044923 5 281 0.0 0.0 0.00 0.00 0.00 74 1007.6
20260508044420 5 286 0.0 0.0 0.00 0.00 0.00 71 1007.4
20260508043915 6 284 0.0 0.0 0.00 0.00 0.00 70 1007.4
20260508043413 6 276 1.6 1.6 0.00 0.00 0.00 67 1007.6
20260508042908 6 278 0.0 0.0 0.00 0.00 0.00 66 1007.4
20260508042401 6 301 0.0 0.0 0.00 0.00 0.00 65 1007.6
20260508041858 6 303 0.0 0.0 0.00 0.00 0.00 67 1007.6
20260508041353 6 286 0.0 0.0 0.00 0.00 0.00 70 1007.8
20260508040850 5 332 0.0 0.0 0.00 0.00 0.00 73 1007.6
20260508040348 6 280 0.0 0.0 0.00 0.00 0.00 75 1007.8